Simultaneous Nadir Overpasses (SNOs) Predictions

Prediction of SNOs between AQUA and GOES-15 Satellite Orbit:

Table of predicted SNOs for the next 14.0 days since TLE Epoch: 12/14/2024
Index Date Time (AQUA) AQUA Lat,Lon GOES-15 Lat,Lon Distance(km) Time Diff (sec)
1 12/14/2024 22:15:01 -0.30, 62.45 -0.04, 61.37 123.87 80
2 12/15/2024 10:34:42 -0.77, 57.70 0.05, 61.48 430.48 80
3 12/17/2024 10:15:56 0.23, 62.29 0.04, 61.47 92.99 80
4 12/17/2024 22:35:30 0.75, 57.55 -0.05, 61.35 431.91 80
5 12/19/2024 22:16:42 -0.20, 62.16 -0.04, 61.35 91.64 80
6 12/20/2024 10:36:23 -0.83, 57.40 0.05, 61.47 463.35 80
7 12/22/2024 10:17:35 0.19, 62.00 0.05, 61.46 61.20 80
8 12/22/2024 22:37:07 0.81, 57.27 -0.06, 61.33 462.57 80
9 12/24/2024 22:18:17 -0.16, 61.88 -0.05, 61.33 61.72 80
10 12/25/2024 10:37:57 -0.89, 57.13 0.06, 61.47 493.96 80
11 12/27/2024 10:19:06 0.10, 61.74 0.05, 61.47 30.53 80
12 12/27/2024 22:38:39 0.87, 57.01 -0.05, 61.34 492.44 80
